Location: Azul
(36.7830°S, 59.8500°W)
Time: 13:16:15
(UTC-03:00)

ISS - Pass Details

Date: 14 August 2017
Orbit: 401 x 408 km, 51.6° (Epoch: 19 August)

Event Time Altitude Azimuth Distance (km) Brightness Sun altitude
Exits shadow 06:46:23 - 206° (SSW) 1,747 -0.9 -12.0°
Reaches altitude 10° 06:47:13 10° 197° (SSW) 1,500 -1.2 -11.8°
Maximum altitude 06:49:31 17° 154° (SSE) 1,142 -1.3 -11.3°
Drops below altitude 10° 06:51:49 10° 110° (ESE) 1,493 0.1 -10.9°
Sets 06:54:25 0° 89° (E) 2,350 2.1 -10.4°
